Wetterdaten: Dienstag, 03.07.2012
Datum Zeit Temperatur Luftfeuchte Regen Wind Richtung Richtung Taupunkt Windchill Windben
03.07.2012 00:00 15,4 C 92 % 0,0 l/m 1,1 km/h (1 Bft) N-NO 22 14,1 C 15,2 C 0,0 km/h (0 Bft)
03.07.2012 00:05 15,4 C 92 % 0,0 l/m 0,8 km/h (0 Bft) N-NO 22 14,1 C 15,2 C 1,8 km/h (1 Bft)
03.07.2012 00:10 15,4 C 93 % 0,0 l/m 1,0 km/h (0 Bft) NO 45 14,3 C 15,2 C 0,0 km/h (0 Bft)
03.07.2012 00:15 15,4 C 93 % 0,0 l/m 0,8 km/h (0 Bft) NO 45 14,3 C 15,2 C 0,0 km/h (0 Bft)
03.07.2012 00:20 15,4 C 93 % 0,0 l/m 0,0 km/h (0 Bft) NO 45 14,3 C 15,2 C 0,0 km/h (0 Bft)
03.07.2012 00:25 15,5 C 93 % 0,0 l/m 0,0 km/h (0 Bft) SO 135 14,4 C 15,2 C 2,1 km/h (1 Bft)
03.07.2012 00:30 15,5 C 93 % 0,0 l/m 1,3 km/h (1 Bft) O-SO 112 14,4 C 15,2 C 4,5 km/h (1 Bft)
03.07.2012 00:35 15,5 C 93 % 0,0 l/m 1,4 km/h (1 Bft) N-NW 337 14,4 C 15,3 C 0,0 km/h (0 Bft)
03.07.2012 00:40 15,5 C 93 % 0,0 l/m 0,3 km/h (0 Bft) N 360 14,4 C 15,3 C 0,0 km/h (0 Bft)
03.07.2012 00:45 15,5 C 93 % 0,0 l/m 0,0 km/h (0 Bft) W-NW 292 14,4 C 15,3 C 0,0 km/h (0 Bft)
03.07.2012 00:50 15,4 C 93 % 0,0 l/m 0,0 km/h (0 Bft) N-NO 22 14,3 C 15,2 C 0,0 km/h (0 Bft)
03.07.2012 00:55 15,4 C 93 % 0,0 l/m 0,3 km/h (0 Bft) NO 45 14,3 C 15,2 C 0,0 km/h (0 Bft)
03.07.2012 01:00 15,5 C 93 % 0,0 l/m 0,3 km/h (0 Bft) N-NO 22 14,4 C 15,3 C 0,0 km/h (0 Bft)
03.07.2012 01:05 15,5 C 93 % 0,0 l/m 0,3 km/h (0 Bft) W-NW 292 14,4 C 15,3 C 3,1 km/h (1 Bft)
03.07.2012 01:10 15,5 C 93 % 0,0 l/m 0,6 km/h (0 Bft) NW 315 14,4 C 15,4 C 2,1 km/h (1 Bft)
03.07.2012 01:15 15,5 C 93 % 0,0 l/m 0,6 km/h (0 Bft) W-SW 247 14,4 C 15,4 C 0,0 km/h (0 Bft)
03.07.2012 01:20 15,5 C 93 % 0,0 l/m 0,3 km/h (0 Bft) N-NO 22 14,4 C 15,4 C 0,0 km/h (0 Bft)
03.07.2012 01:22 15,5 C 93 % 0,0 l/m 0,8 km/h (0 Bft) N 360 14,4 C 15,4 C 1,9 km/h (1 Bft)
03.07.2012 01:27 15,5 C 93 % 0,0 l/m 1,4 km/h (1 Bft) N 360 14,4 C 15,4 C 2,1 km/h (1 Bft)
03.07.2012 01:32 15,5 C 93 % 0,0 l/m 0,8 km/h (0 Bft) O-SO 112 14,4 C 15,3 C 0,0 km/h (0 Bft)
03.07.2012 01:37 15,5 C 93 % 0,0 l/m 0,3 km/h (0 Bft) O-SO 112 14,4 C 15,4 C 0,0 km/h (0 Bft)
03.07.2012 01:42 15,5 C 93 % 0,0 l/m 0,0 km/h (0 Bft) N-NO 22 14,4 C 15,4 C 0,0 km/h (0 Bft)
03.07.2012 01:49 15,5 C 93 % 0,0 l/m 0,0 km/h (0 Bft) N-NO 22 14,4 C 15,4 C 0,0 km/h (0 Bft)
03.07.2012 01:50 15,5 C 93 % 0,0 l/m 0,0 km/h (0 Bft) N-NO 22 14,4 C 15,4 C 0,0 km/h (0 Bft)
03.07.2012 02:00 15,5 C 93 % 0,0 l/m 0,3 km/h (0 Bft) O-SO 112 14,4 C 15,4 C 1,8 km/h (1 Bft)
03.07.2012 02:05 15,5 C 93 % 0,0 l/m 0,6 km/h (0 Bft) N-NO 22 14,4 C 15,4 C 0,0 km/h (0 Bft)
03.07.2012 02:10 15,5 C 93 % 0,0 l/m 0,5 km/h (0 Bft) SO 135 14,4 C 15,4 C 0,0 km/h (0 Bft)
03.07.2012 02:15 15,5 C 93 % 0,0 l/m 0,0 km/h (0 Bft) NO 45 14,4 C 15,4 C 0,0 km/h (0 Bft)
03.07.2012 02:20 15,5 C 93 % 0,0 l/m 0,0 km/h (0 Bft) O-SO 112 14,4 C 15,4 C 0,0 km/h (0 Bft)
03.07.2012 02:25 15,5 C 93 % 0,0 l/m 0,0 km/h (0 Bft) S-SO 157 14,4 C 15,4 C 0,0 km/h (0 Bft)
03.07.2012 02:30 15,5 C 93 % 0,0 l/m 0,0 km/h (0 Bft) O-SO 112 14,4 C 15,3 C 0,0 km/h (0 Bft)
03.07.2012 02:35 15,5 C 93 % 0,0 l/m 0,0 km/h (0 Bft) N 360 14,4 C 15,3 C 0,0 km/h (0 Bft)
03.07.2012 02:40 15,5 C 93 % 0,0 l/m 0,0 km/h (0 Bft) O 90 14,4 C 15,2 C 0,0 km/h (0 Bft)
03.07.2012 02:45 15,4 C 93 % 0,0 l/m 0,0 km/h (0 Bft) N 360 14,3 C 15,2 C 0,0 km/h (0 Bft)
03.07.2012 02:50 15,4 C 93 % 0,0 l/m 0,0 km/h (0 Bft) N 360 14,3 C 15,2 C 0,0 km/h (0 Bft)
03.07.2012 02:55 15,4 C 93 % 0,0 l/m 0,0 km/h (0 Bft) N 360 14,3 C 15,2 C 0,0 km/h (0 Bft)
03.07.2012 03:00 15,4 C 93 % 0,0 l/m 0,0 km/h (0 Bft) N-NO 22 14,3 C 15,2 C 0,0 km/h (0 Bft)
03.07.2012 03:05 15,3 C 93 % 0,0 l/m 0,0 km/h (0 Bft) NO 45 14,2 C 15,2 C 0,0 km/h (0 Bft)
03.07.2012 03:10 15,3 C 93 % 0,0 l/m 0,0 km/h (0 Bft) N-NO 22 14,2 C 15,2 C 0,0 km/h (0 Bft)
03.07.2012 03:15 15,3 C 93 % 0,0 l/m 0,0 km/h (0 Bft) O-SO 112 14,2 C 15,2 C 0,0 km/h (0 Bft)
03.07.2012 03:20 15,4 C 93 % 0,0 l/m 0,0 km/h (0 Bft) S 180 14,3 C 15,2 C 0,0 km/h (0 Bft)
03.07.2012 03:25 15,4 C 93 % 0,0 l/m 0,0 km/h (0 Bft) SO 135 14,3 C 15,2 C 0,0 km/h (0 Bft)
03.07.2012 03:30 15,5 C 93 % 0,0 l/m 0,0 km/h (0 Bft) S-SO 157 14,4 C 15,2 C 0,0 km/h (0 Bft)
03.07.2012 03:35 15,4 C 93 % 0,0 l/m 0,0 km/h (0 Bft) NO 45 14,3 C 15,2 C 0,0 km/h (0 Bft)
03.07.2012 03:40 15,4 C 93 % 0,0 l/m 0,0 km/h (0 Bft) O-SO 112 14,3 C 15,2 C 0,0 km/h (0 Bft)
03.07.2012 03:45 15,4 C 93 % 0,0 l/m 0,0 km/h (0 Bft) O-SO 112 14,3 C 15,2 C 0,0 km/h (0 Bft)
03.07.2012 03:50 15,3 C 93 % 0,0 l/m 0,0 km/h (0 Bft) N-NO 22 14,2 C 15,2 C 0,0 km/h (0 Bft)
03.07.2012 03:55 15,3 C 93 % 0,0 l/m 0,0 km/h (0 Bft) N-NO 22 14,2 C 15,2 C 0,0 km/h (0 Bft)
03.07.2012 04:00 15,3 C 93 % 0,0 l/m 0,0 km/h (0 Bft) N-NO 22 14,2 C 15,2 C 0,0 km/h (0 Bft)
03.07.2012 04:05 15,3 C 93 % 0,0 l/m 0,0 km/h (0 Bft) NO 45 14,2 C 15,2 C 0,0 km/h (0 Bft)
03.07.2012 04:10 15,3 C 93 % 0,0 l/m 0,0 km/h (0 Bft) N 360 14,2 C 15,2 C 0,0 km/h (0 Bft)
03.07.2012 04:15 15,3 C 93 % 0,0 l/m 0,0 km/h (0 Bft) N-NO 22 14,2 C 15,2 C 0,0 km/h (0 Bft)
03.07.2012 04:20 15,3 C 93 % 0,0 l/m 0,0 km/h (0 Bft) N 360 14,2 C 15,2 C 0,0 km/h (0 Bft)
03.07.2012 04:25 15,3 C 93 % 0,0 l/m 0,0 km/h (0 Bft) W-SW 247 14,2 C 15,2 C 0,0 km/h (0 Bft)
03.07.2012 04:30 15,3 C 93 % 0,0 l/m 0,3 km/h (0 Bft) O-SO 112 14,2 C 15,2 C 0,0 km/h (0 Bft)
03.07.2012 04:35 15,3 C 93 % 0,0 l/m 0,3 km/h (0 Bft) N-NO 22 14,2 C 15,2 C 0,0 km/h (0 Bft)
03.07.2012 04:40 15,4 C 93 % 0,0 l/m 0,0 km/h (0 Bft) S-SW 202 14,3 C 15,2 C 0,0 km/h (0 Bft)
03.07.2012 04:45 15,4 C 93 % 0,0 l/m 0,0 km/h (0 Bft) W-SW 247 14,3 C 15,2 C 0,0 km/h (0 Bft)
03.07.2012 04:50 15,4 C 93 % 0,0 l/m 0,0 km/h (0 Bft) O-SO 112 14,3 C 15,2 C 0,0 km/h (0 Bft)
03.07.2012 04:55 15,4 C 93 % 0,0 l/m 0,0 km/h (0 Bft) S-SO 157 14,3 C 15,2 C 0,0 km/h (0 Bft)
03.07.2012 05:00 15,4 C 93 % 0,0 l/m 0,0 km/h (0 Bft) SO 135 14,3 C 15,2 C 0,0 km/h (0 Bft)
03.07.2012 05:05 15,4 C 93 % 0,0 l/m 0,0 km/h (0 Bft) O 90 14,3 C 15,2 C 0,0 km/h (0 Bft)
03.07.2012 05:10 15,4 C 93 % 0,0 l/m 0,0 km/h (0 Bft) O-NO 67 14,3 C 15,2 C 0,0 km/h (0 Bft)
03.07.2012 05:15 15,4 C 93 % 0,0 l/m 0,0 km/h (0 Bft) N-NO 22 14,3 C 15,2 C 0,0 km/h (0 Bft)
03.07.2012 05:20 15,4 C 93 % 0,0 l/m 0,0 km/h (0 Bft) NO 45 14,3 C 15,2 C 0,0 km/h (0 Bft)
03.07.2012 05:25 15,4 C 93 % 0,0 l/m 0,0 km/h (0 Bft) NO 45 14,3 C 15,2 C 0,0 km/h (0 Bft)
03.07.2012 05:30 15,4 C 93 % 0,0 l/m 0,0 km/h (0 Bft) NO 45 14,3 C 15,2 C 0,0 km/h (0 Bft)
03.07.2012 05:35 15,4 C 93 % 0,0 l/m 0,0 km/h (0 Bft) N-NO 22 14,3 C 15,2 C 0,0 km/h (0 Bft)
03.07.2012 05:40 15,4 C 93 % 0,0 l/m 0,0 km/h (0 Bft) O 90 14,3 C 15,2 C 0,0 km/h (0 Bft)
03.07.2012 05:45 15,4 C 93 % 0,0 l/m 0,0 km/h (0 Bft) NO 45 14,3 C 15,2 C 0,0 km/h (0 Bft)
03.07.2012 05:50 15,4 C 93 % 0,0 l/m 0,0 km/h (0 Bft) S-SO 157 14,3 C 15,2 C 0,0 km/h (0 Bft)
03.07.2012 05:55 15,5 C 93 % 0,0 l/m 0,0 km/h (0 Bft) SO 135 14,4 C 15,2 C 0,0 km/h (0 Bft)
03.07.2012 06:00 15,5 C 93 % 0,0 l/m 0,0 km/h (0 Bft) S 180 14,4 C 15,2 C 0,0 km/h (0 Bft)
03.07.2012 06:05 15,5 C 93 % 0,0 l/m 0,0 km/h (0 Bft) S 180 14,4 C 15,3 C 0,0 km/h (0 Bft)
03.07.2012 06:10 15,5 C 93 % 0,0 l/m 0,0 km/h (0 Bft) NO 45 14,4 C 15,3 C 0,0 km/h (0 Bft)
03.07.2012 06:15 15,5 C 93 % 0,0 l/m 0,0 km/h (0 Bft) SO 135 14,4 C 15,3 C 0,0 km/h (0 Bft)
03.07.2012 06:20 15,5 C 93 % 0,0 l/m 0,0 km/h (0 Bft) SO 135 14,4 C 15,3 C 0,0 km/h (0 Bft)
03.07.2012 06:25 15,5 C 93 % 0,0 l/m 0,0 km/h (0 Bft) O-SO 112 14,4 C 15,3 C 0,0 km/h (0 Bft)
03.07.2012 06:30 15,6 C 94 % 0,0 l/m 0,2 km/h (0 Bft) O 90 14,6 C 15,3 C 0,0 km/h (0 Bft)
03.07.2012 06:35 15,5 C 94 % 0,0 l/m 0,2 km/h (0 Bft) O-SO 112 14,5 C 15,4 C 0,0 km/h (0 Bft)
03.07.2012 06:40 15,5 C 94 % 0,0 l/m 0,0 km/h (0 Bft) N 360 14,5 C 15,4 C 0,0 km/h (0 Bft)
03.07.2012 06:45 15,5 C 93 % 0,0 l/m 0,0 km/h (0 Bft) N 360 14,4 C 15,4 C 0,0 km/h (0 Bft)
03.07.2012 06:50 15,6 C 93 % 0,0 l/m 0,0 km/h (0 Bft) N-NO 22 14,5 C 15,4 C 0,0 km/h (0 Bft)
03.07.2012 06:55 15,6 C 94 % 0,0 l/m 0,0 km/h (0 Bft) S 180 14,6 C 15,4 C 0,0 km/h (0 Bft)
03.07.2012 07:00 15,6 C 93 % 0,0 l/m 0,0 km/h (0 Bft) NO 45 14,5 C 15,4 C 0,0 km/h (0 Bft)
03.07.2012 07:05 15,6 C 94 % 0,0 l/m 0,0 km/h (0 Bft) N 360 14,6 C 15,4 C 0,0 km/h (0 Bft)
03.07.2012 07:10 15,6 C 94 % 0,0 l/m 0,0 km/h (0 Bft) N 360 14,6 C 15,5 C 0,0 km/h (0 Bft)
03.07.2012 07:15 15,6 C 94 % 0,0 l/m 0,0 km/h (0 Bft) N 360 14,6 C 15,5 C 0,0 km/h (0 Bft)
03.07.2012 07:20 15,7 C 93 % 0,0 l/m 0,0 km/h (0 Bft) SW 225 14,6 C 15,5 C 0,0 km/h (0 Bft)
03.07.2012 07:25 15,7 C 93 % 0,0 l/m 0,0 km/h (0 Bft) W-NW 292 14,6 C 15,5 C 0,0 km/h (0 Bft)
03.07.2012 07:30 15,9 C 93 % 0,0 l/m 0,3 km/h (0 Bft) N-NO 22 14,8 C 15,6 C 2,3 km/h (1 Bft)
03.07.2012 07:35 15,9 C 93 % 0,0 l/m 0,5 km/h (0 Bft) W 270 14,8 C 15,7 C 2,3 km/h (1 Bft)
03.07.2012 07:40 16,0 C 92 % 0,0 l/m 0,8 km/h (0 Bft) W-NW 292 14,7 C 15,7 C 2,3 km/h (1 Bft)
03.07.2012 07:45 16,1 C 92 % 0,0 l/m 1,1 km/h (1 Bft) W 270 14,8 C 15,8 C 2,1 km/h (1 Bft)
03.07.2012 07:50 16,2 C 92 % 0,0 l/m 1,4 km/h (1 Bft) N-NW 337 14,9 C 16,0 C 1,9 km/h (1 Bft)
03.07.2012 07:55 16,3 C 92 % 0,0 l/m 1,0 km/h (0 Bft) W-SW 247 15,0 C 16,1 C 1,8 km/h (1 Bft)
03.07.2012 08:00 16,4 C 92 % 0,0 l/m 0,2 km/h (0 Bft) W-SW 247 15,1 C 16,4 C 0,0 km/h (0 Bft)
03.07.2012 08:05 16,4 C 92 % 0,0 l/m 0,0 km/h (0 Bft) W-NW 292 15,1 C 16,5 C 0,0 km/h (0 Bft)
03.07.2012 08:10 16,4 C 91 % 0,0 l/m 0,0 km/h (0 Bft) W-NW 292 14,9 C 16,7 C 0,0 km/h (0 Bft)
03.07.2012 08:15 16,5 C 91 % 0,0 l/m 0,0 km/h (0 Bft) N 360 15,0 C 16,8 C 0,0 km/h (0 Bft)
03.07.2012 08:20 16,4 C 91 % 0,0 l/m 0,8 km/h (0 Bft) W 270 14,9 C 16,7 C 2,3 km/h (1 Bft)
03.07.2012 08:25 16,3 C 91 % 0,0 l/m 1,3 km/h (1 Bft) W-NW 292 14,8 C 16,6 C 1,6 km/h (1 Bft)
03.07.2012 08:30 16,4 C 91 % 0,0 l/m 0,8 km/h (0 Bft) W-NW 292 14,9 C 16,6 C 1,9 km/h (1 Bft)
03.07.2012 08:35 16,3 C 91 % 0,0 l/m 0,8 km/h (0 Bft) W-NW 292 14,8 C 16,6 C 2,6 km/h (1 Bft)
03.07.2012 08:40 16,3 C 91 % 0,0 l/m 1,4 km/h (1 Bft) W-NW 292 14,8 C 16,5 C 1,9 km/h (1 Bft)
03.07.2012 08:45 16,3 C 91 % 0,0 l/m 1,4 km/h (1 Bft) N-NW 337 14,8 C 16,4 C 2,1 km/h (1 Bft)
03.07.2012 08:50 16,2 C 91 % 0,0 l/m 1,8 km/h (1 Bft) W-NW 292 14,7 C 16,3 C 3,5 km/h (1 Bft)
03.07.2012 08:55 16,3 C 91 % 0,0 l/m 1,4 km/h (1 Bft) N-NW 337 14,8 C 16,2 C 0,0 km/h (0 Bft)
03.07.2012 09:00 16,3 C 91 % 0,0 l/m 1,6 km/h (1 Bft) N 360 14,8 C 16,2 C 0,0 km/h (0 Bft)
03.07.2012 09:05 16,4 C 91 % 0,0 l/m 1,0 km/h (0 Bft) W-NW 292 14,9 C 16,2 C 1,6 km/h (1 Bft)
03.07.2012 09:10 16,8 C 91 % 0,0 l/m 0,3 km/h (0 Bft) N-NW 337 15,3 C 16,5 C 1,8 km/h (1 Bft)
03.07.2012 09:15 17,0 C 90 % 0,0 l/m 0,3 km/h (0 Bft) W-NW 292 15,3 C 16,8 C 1,9 km/h (1 Bft)
03.07.2012 09:20 17,3 C 90 % 0,0 l/m 0,5 km/h (0 Bft) NW 315 15,6 C 17,2 C 0,0 km/h (0 Bft)
03.07.2012 09:25 17,3 C 90 % 0,0 l/m 1,0 km/h (0 Bft) W 270 15,6 C 17,3 C 2,6 km/h (1 Bft)
03.07.2012 09:30 17,5 C 90 % 0,0 l/m 1,1 km/h (1 Bft) W-SW 247 15,8 C 17,5 C 2,1 km/h (1 Bft)
03.07.2012 09:35 17,6 C 89 % 0,0 l/m 1,1 km/h (1 Bft) S-SW 202 15,8 C 17,7 C 0,0 km/h (0 Bft)
03.07.2012 09:40 17,4 C 89 % 0,0 l/m 1,4 km/h (1 Bft) NW 315 15,6 C 17,8 C 2,9 km/h (1 Bft)
03.07.2012 09:45 17,5 C 89 % 0,0 l/m 1,6 km/h (1 Bft) W-SW 247 15,7 C 17,8 C 3,1 km/h (1 Bft)
03.07.2012 09:50 18,0 C 89 % 0,0 l/m 1,8 km/h (1 Bft) W-SW 247 16,2 C 18,2 C 2,9 km/h (1 Bft)
03.07.2012 09:55 18,2 C 88 % 0,0 l/m 2,1 km/h (1 Bft) SO 135 16,2 C 18,6 C 3,4 km/h (1 Bft)
03.07.2012 10:00 18,0 C 87 % 0,0 l/m 2,9 km/h (1 Bft) W-SW 247 15,8 C 18,7 C 6,1 km/h (2 Bft)
03.07.2012 10:05 18,2 C 87 % 0,0 l/m 3,4 km/h (1 Bft) W 270 16,0 C 18,8 C 4,3 km/h (1 Bft)
03.07.2012 10:10 18,1 C 87 % 0,0 l/m 3,2 km/h (1 Bft) W-SW 247 15,9 C 18,8 C 3,5 km/h (1 Bft)
03.07.2012 10:15 18,0 C 87 % 0,0 l/m 3,1 km/h (1 Bft) W-NW 292 15,8 C 18,8 C 3,4 km/h (1 Bft)
03.07.2012 10:20 18,0 C 87 % 0,0 l/m 1,6 km/h (1 Bft) W-SW 247 15,8 C 18,8 C 4,0 km/h (1 Bft)
03.07.2012 10:25 17,7 C 87 % 0,0 l/m 1,1 km/h (1 Bft) W-NW 292 15,5 C 18,6 C 1,8 km/h (1 Bft)
03.07.2012 10:30 18,0 C 87 % 0,0 l/m 2,1 km/h (1 Bft) N-NW 337 15,8 C 18,7 C 3,1 km/h (1 Bft)
03.07.2012 10:35 18,0 C 85 % 0,0 l/m 1,9 km/h (1 Bft) W 270 15,4 C 18,8 C 2,6 km/h (1 Bft)
03.07.2012 10:40 17,9 C 85 % 0,0 l/m 1,6 km/h (1 Bft) W-NW 292 15,3 C 19,0 C 3,5 km/h (1 Bft)
03.07.2012 10:45 18,1 C 86 % 0,0 l/m 1,1 km/h (1 Bft) N-NW 337 15,7 C 19,2 C 2,3 km/h (1 Bft)
03.07.2012 10:50 17,9 C 86 % 0,0 l/m 2,1 km/h (1 Bft) W-SW 247 15,5 C 19,1 C 6,6 km/h (2 Bft)
03.07.2012 10:55 18,0 C 86 % 0,0 l/m 2,4 km/h (1 Bft) W 270 15,6 C 19,1 C 3,5 km/h (1 Bft)
03.07.2012 11:00 17,9 C 86 % 0,0 l/m 2,1 km/h (1 Bft) W 270 15,5 C 19,0 C 4,0 km/h (1 Bft)
03.07.2012 11:05 17,9 C 87 % 0,0 l/m 2,6 km/h (1 Bft) W 270 15,7 C 18,8 C 3,4 km/h (1 Bft)
03.07.2012 11:10 17,8 C 86 % 0,0 l/m 3,1 km/h (1 Bft) S-SW 202 15,4 C 18,4 C 4,5 km/h (1 Bft)
03.07.2012 11:15 17,8 C 86 % 0,0 l/m 3,2 km/h (1 Bft) SW 225 15,4 C 18,4 C 3,2 km/h (1 Bft)
03.07.2012 11:20 18,0 C 86 % 0,0 l/m 2,7 km/h (1 Bft) W-NW 292 15,6 C 18,6 C 3,1 km/h (1 Bft)
03.07.2012 11:25 18,1 C 86 % 0,0 l/m 2,3 km/h (1 Bft) W-NW 292 15,7 C 18,8 C 2,6 km/h (1 Bft)
03.07.2012 11:30 18,2 C 86 % 0,0 l/m 2,1 km/h (1 Bft) W-NW 292 15,8 C 18,9 C 2,7 km/h (1 Bft)
03.07.2012 11:35 18,1 C 86 % 0,0 l/m 2,4 km/h (1 Bft) N-NO 22 15,7 C 18,8 C 2,7 km/h (1 Bft)
03.07.2012 11:40 18,4 C 86 % 0,0 l/m 2,7 km/h (1 Bft) N-NW 337 16,0 C 19,0 C 3,9 km/h (1 Bft)
03.07.2012 11:45 18,2 C 85 % 0,0 l/m 2,9 km/h (1 Bft) N-NW 337 15,6 C 18,9 C 3,5 km/h (1 Bft)
03.07.2012 11:50 18,2 C 83 % 0,0 l/m 3,5 km/h (1 Bft) W-NW 292 15,3 C 19,1 C 7,2 km/h (2 Bft)
03.07.2012 11:55 18,2 C 84 % 0,0 l/m 3,1 km/h (1 Bft) W-NW 292 15,4 C 19,2 C 2,7 km/h (1 Bft)
03.07.2012 12:00 18,2 C 83 % 0,0 l/m 3,2 km/h (1 Bft) W-NW 292 15,3 C 19,2 C 4,3 km/h (1 Bft)
03.07.2012 12:05 18,6 C 83 % 0,0 l/m 3,4 km/h (1 Bft) NW 315 15,7 C 19,4 C 3,4 km/h (1 Bft)
03.07.2012 12:10 18,3 C 83 % 0,0 l/m 3,7 km/h (1 Bft) W-NW 292 15,4 C 19,6 C 4,5 km/h (1 Bft)
03.07.2012 12:15 18,3 C 83 % 0,0 l/m 3,9 km/h (1 Bft) S 180 15,4 C 19,4 C 1,8 km/h (1 Bft)
03.07.2012 12:20 18,6 C 85 % 0,0 l/m 3,4 km/h (1 Bft) N 360 16,0 C 19,3 C 5,0 km/h (1 Bft)
03.07.2012 12:25 18,6 C 83 % 0,0 l/m 3,2 km/h (1 Bft) W 270 15,7 C 19,4 C 3,7 km/h (1 Bft)
03.07.2012 12:30 18,8 C 85 % 0,0 l/m 3,1 km/h (1 Bft) W-NW 292 16,2 C 19,7 C 4,8 km/h (1 Bft)
03.07.2012 12:35 18,5 C 84 % 0,0 l/m 2,9 km/h (1 Bft) W 270 15,7 C 19,6 C 5,5 km/h (1 Bft)
03.07.2012 12:40 18,2 C 85 % 0,0 l/m 3,1 km/h (1 Bft) SW 225 15,6 C 19,2 C 8,4 km/h (2 Bft)
03.07.2012 12:45 18,0 C 84 % 0,0 l/m 4,0 km/h (1 Bft) S-SW 202 15,3 C 18,9 C 6,1 km/h (2 Bft)
03.07.2012 12:50 17,9 C 85 % 0,0 l/m 4,0 km/h (1 Bft) W-SW 247 15,3 C 18,5 C 8,7 km/h (2 Bft)
03.07.2012 12:55 18,0 C 85 % 0,0 l/m 3,7 km/h (1 Bft) W-SW 247 15,4 C 18,4 C 4,3 km/h (1 Bft)
03.07.2012 13:00 18,2 C 86 % 0,0 l/m 2,7 km/h (1 Bft) W-SW 247 15,8 C 18,5 C 6,1 km/h (2 Bft)
03.07.2012 13:05 18,5 C 84 % 0,0 l/m 2,7 km/h (1 Bft) S-SW 202 15,7 C 18,7 C 3,7 km/h (1 Bft)
03.07.2012 13:10 19,2 C 84 % 0,0 l/m 3,2 km/h (1 Bft) S-SO 157 16,4 C 19,6 C 4,7 km/h (1 Bft)
03.07.2012 13:15 19,3 C 83 % 0,0 l/m 3,2 km/h (1 Bft) S 180 16,3 C 20,0 C 5,5 km/h (1 Bft)
03.07.2012 13:20 19,5 C 82 % 0,0 l/m 3,2 km/h (1 Bft) W-NW 292 16,3 C 20,3 C 1,9 km/h (1 Bft)
03.07.2012 13:25 19,6 C 78 % 0,0 l/m 2,7 km/h (1 Bft) N 360 15,7 C 20,8 C 2,3 km/h (1 Bft)
03.07.2012 13:30 20,6 C 79 % 0,0 l/m 2,6 km/h (1 Bft) NO 45 16,8 C 21,9 C 5,1 km/h (1 Bft)
03.07.2012 13:35 20,6 C 75 % 0,0 l/m 3,2 km/h (1 Bft) SW 225 16,0 C 22,5 C 6,4 km/h (2 Bft)
03.07.2012 13:40 20,4 C 78 % 0,0 l/m 4,0 km/h (1 Bft) S 180 16,4 C 22,3 C 1,8 km/h (1 Bft)
03.07.2012 13:45 20,4 C 76 % 0,0 l/m 4,0 km/h (1 Bft) W 270 16,0 C 22,2 C 6,8 km/h (2 Bft)
03.07.2012 13:50 21,0 C 77 % 0,0 l/m 3,5 km/h (1 Bft) W-NW 292 16,8 C 22,2 C 5,8 km/h (2 Bft)
03.07.2012 13:55 21,3 C 73 % 0,0 l/m 4,0 km/h (1 Bft) S-SW 202 16,3 C 22,6 C 4,7 km/h (1 Bft)
03.07.2012 14:00 20,7 C 75 % 0,0 l/m 3,9 km/h (1 Bft) N-NO 22 16,1 C 22,8 C 5,0 km/h (1 Bft)
03.07.2012 14:05 20,1 C 75 % 0,0 l/m 3,7 km/h (1 Bft) N-NW 337 15,5 C 22,5 C 5,6 km/h (1 Bft)
03.07.2012 14:10 19,7 C 78 % 0,0 l/m 3,1 km/h (1 Bft) N-NW 337 15,8 C 21,5 C 0,0 km/h (0 Bft)
03.07.2012 14:15 19,5 C 76 % 0,0 l/m 1,9 km/h (1 Bft) N 360 15,2 C 21,3 C 0,0 km/h (0 Bft)
03.07.2012 14:20 19,5 C 78 % 0,0 l/m 1,6 km/h (1 Bft) N 360 15,6 C 20,9 C 4,5 km/h (1 Bft)
03.07.2012 14:25 19,3 C 77 % 0,0 l/m 2,3 km/h (1 Bft) NO 45 15,2 C 20,5 C 2,9 km/h (1 Bft)
03.07.2012 14:30 19,6 C 78 % 0,0 l/m 2,3 km/h (1 Bft) W 270 15,7 C 20,4 C 2,6 km/h (1 Bft)
03.07.2012 14:35 20,0 C 76 % 0,0 l/m 2,7 km/h (1 Bft) W-NW 292 15,6 C 20,7 C 3,7 km/h (1 Bft)
03.07.2012 14:40 19,8 C 76 % 0,0 l/m 2,6 km/h (1 Bft) S-SW 202 15,4 C 21,0 C 3,4 km/h (1 Bft)
03.07.2012 14:45 19,7 C 77 % 0,0 l/m 2,3 km/h (1 Bft) W-SW 247 15,5 C 21,0 C 3,4 km/h (1 Bft)
03.07.2012 14:50 19,3 C 77 % 0,0 l/m 2,9 km/h (1 Bft) W-SW 247 15,2 C 20,9 C 3,7 km/h (1 Bft)
03.07.2012 14:55 19,5 C 77 % 0,0 l/m 3,1 km/h (1 Bft) S-SW 202 15,4 C 20,6 C 4,8 km/h (1 Bft)
03.07.2012 15:00 19,4 C 77 % 0,0 l/m 2,9 km/h (1 Bft) S 180 15,3 C 20,3 C 2,3 km/h (1 Bft)
03.07.2012 15:05 19,1 C 77 % 0,0 l/m 2,3 km/h (1 Bft) W-NW 292 15,0 C 20,2 C 3,4 km/h (1 Bft)
03.07.2012 15:10 18,9 C 79 % 0,0 l/m 2,1 km/h (1 Bft) N 360 15,2 C 19,8 C 2,9 km/h (1 Bft)
03.07.2012 15:15 18,5 C 80 % 0,0 l/m 3,4 km/h (1 Bft) S 180 15,0 C 19,3 C 4,3 km/h (1 Bft)
03.07.2012 15:20 18,0 C 81 % 0,0 l/m 5,3 km/h (1 Bft) W 270 14,7 C 18,6 C 10,9 km/h (2 Bft)
03.07.2012 15:25 17,8 C 82 % 0,0 l/m 5,0 km/h (1 Bft) W 270 14,7 C 18,3 C 2,4 km/h (1 Bft)
03.07.2012 15:30 17,7 C 83 % 0,0 l/m 4,2 km/h (1 Bft) SO 135 14,8 C 18,0 C 3,9 km/h (1 Bft)
03.07.2012 15:35 17,7 C 83 % 0,0 l/m 3,4 km/h (1 Bft) W-NW 292 14,8 C 17,8 C 4,8 km/h (1 Bft)
03.07.2012 15:40 17,6 C 84 % 0,0 l/m 3,4 km/h (1 Bft) W 270 14,9 C 17,6 C 4,8 km/h (1 Bft)
03.07.2012 15:45 17,6 C 84 % 0,0 l/m 3,7 km/h (1 Bft) W-NW 292 14,9 C 17,5 C 5,1 km/h (1 Bft)
03.07.2012 15:50 17,5 C 85 % 0,0 l/m 3,5 km/h (1 Bft) W-SW 247 14,9 C 17,4 C 2,9 km/h (1 Bft)
03.07.2012 15:55 17,6 C 85 % 0,0 l/m 3,1 km/h (1 Bft) W-SW 247 15,0 C 17,4 C 3,5 km/h (1 Bft)
03.07.2012 16:00 17,6 C 85 % 0,0 l/m 3,1 km/h (1 Bft) NW 315 15,0 C 17,4 C 4,7 km/h (1 Bft)
03.07.2012 16:05 17,6 C 84 % 0,0 l/m 4,0 km/h (1 Bft) S 180 14,9 C 17,5 C 8,7 km/h (2 Bft)
03.07.2012 16:10 17,8 C 84 % 0,0 l/m 4,2 km/h (1 Bft) N-NW 337 15,1 C 17,7 C 0,0 km/h (0 Bft)
03.07.2012 16:15 17,8 C 84 % 0,0 l/m 4,0 km/h (1 Bft) W-SW 247 15,1 C 17,8 C 2,4 km/h (1 Bft)
03.07.2012 16:20 17,8 C 84 % 0,0 l/m 3,5 km/h (1 Bft) W 270 15,1 C 17,9 C 1,9 km/h (1 Bft)
03.07.2012 16:25 18,1 C 84 % 0,0 l/m 3,5 km/h (1 Bft) S 180 15,4 C 18,0 C 5,1 km/h (1 Bft)
03.07.2012 16:30 18,3 C 83 % 0,0 l/m 3,4 km/h (1 Bft) W-SW 247 15,4 C 18,4 C 6,4 km/h (2 Bft)
03.07.2012 16:35 18,2 C 82 % 0,0 l/m 3,5 km/h (1 Bft) W 270 15,1 C 18,5 C 4,3 km/h (1 Bft)
03.07.2012 16:40 18,4 C 82 % 0,0 l/m 2,7 km/h (1 Bft) W 270 15,3 C 18,8 C 5,3 km/h (1 Bft)
03.07.2012 16:45 18,4 C 82 % 0,0 l/m 2,1 km/h (1 Bft) W 270 15,3 C 18,8 C 2,7 km/h (1 Bft)
03.07.2012 16:50 18,3 C 81 % 0,0 l/m 2,6 km/h (1 Bft) S-SW 202 15,0 C 18,8 C 3,2 km/h (1 Bft)
03.07.2012 16:55 18,4 C 81 % 0,0 l/m 2,3 km/h (1 Bft) S 180 15,1 C 18,8 C 1,6 km/h (1 Bft)
03.07.2012 17:00 17,9 C 82 % 0,0 l/m 1,6 km/h (1 Bft) SW 225 14,8 C 18,3 C 2,3 km/h (1 Bft)
03.07.2012 17:05 17,9 C 83 % 0,0 l/m 1,6 km/h (1 Bft) O 90 15,0 C 17,9 C 3,4 km/h (1 Bft)
03.07.2012 17:10 17,6 C 83 % 0,0 l/m 2,3 km/h (1 Bft) W-SW 247 14,7 C 17,6 C 4,8 km/h (1 Bft)
03.07.2012 17:15 17,6 C 84 % 0,0 l/m 2,3 km/h (1 Bft) W-SW 247 14,9 C 17,4 C 4,3 km/h (1 Bft)
03.07.2012 17:20 17,6 C 84 % 0,0 l/m 1,9 km/h (1 Bft) W 270 14,9 C 17,2 C 2,3 km/h (1 Bft)
03.07.2012 17:25 17,6 C 84 % 0,0 l/m 2,3 km/h (1 Bft) W-NW 292 14,9 C 17,0 C 2,9 km/h (1 Bft)
03.07.2012 17:30 17,5 C 85 % 0,0 l/m 1,6 km/h (1 Bft) S-SW 202 14,9 C 17,0 C 2,4 km/h (1 Bft)
03.07.2012 17:35 17,5 C 85 % 0,0 l/m 1,3 km/h (1 Bft) W-SW 247 14,9 C 17,0 C 3,2 km/h (1 Bft)
03.07.2012 17:40 17,4 C 85 % 0,0 l/m 2,4 km/h (1 Bft) S-SW 202 14,8 C 17,0 C 0,0 km/h (0 Bft)
03.07.2012 17:45 17,4 C 85 % 0,0 l/m 3,1 km/h (1 Bft) S 180 14,8 C 16,9 C 3,2 km/h (1 Bft)
03.07.2012 17:50 17,2 C 85 % 0,0 l/m 1,6 km/h (1 Bft) S 180 14,7 C 16,8 C 0,0 km/h (0 Bft)
03.07.2012 17:55 17,2 C 85 % 0,0 l/m 0,6 km/h (0 Bft) NO 45 14,7 C 16,8 C 0,0 km/h (0 Bft)
03.07.2012 18:00 17,1 C 85 % 0,0 l/m 0,0 km/h (0 Bft) O 90 14,6 C 16,8 C 0,0 km/h (0 Bft)
03.07.2012 18:05 17,1 C 86 % 0,0 l/m 0,0 km/h (0 Bft) SW 225 14,7 C 16,8 C 0,0 km/h (0 Bft)
03.07.2012 18:10 17,0 C 86 % 0,0 l/m 0,0 km/h (0 Bft) S-SW 202 14,6 C 16,7 C 0,0 km/h (0 Bft)
03.07.2012 18:15 17,0 C 86 % 0,0 l/m 0,3 km/h (0 Bft) SW 225 14,6 C 16,7 C 2,9 km/h (1 Bft)
03.07.2012 18:20 16,9 C 86 % 0,0 l/m 1,4 km/h (1 Bft) W-NW 292 14,5 C 16,6 C 2,3 km/h (1 Bft)
03.07.2012 18:25 16,9 C 87 % 0,0 l/m 1,8 km/h (1 Bft) W-SW 247 14,7 C 16,5 C 1,9 km/h (1 Bft)
03.07.2012 18:30 16,8 C 87 % 0,0 l/m 0,8 km/h (0 Bft) N 360 14,6 C 16,4 C 2,3 km/h (1 Bft)
03.07.2012 18:35 16,5 C 88 % 0,0 l/m 0,8 km/h (0 Bft) N-NO 22 14,5 C 16,3 C 0,0 km/h (0 Bft)
03.07.2012 18:40 16,3 C 89 % 0,0 l/m 0,6 km/h (0 Bft) N 360 14,5 C 16,1 C 0,0 km/h (0 Bft)
03.07.2012 18:45 16,2 C 89 % 0,7 l/m 0,2 km/h (0 Bft) N-NO 22 14,4 C 16,1 C 0,0 km/h (0 Bft)
03.07.2012 18:50 16,1 C 90 % 0,0 l/m 0,0 km/h (0 Bft) N-NO 22 14,5 C 16,0 C 0,0 km/h (0 Bft)
03.07.2012 18:55 16,1 C 90 % 0,0 l/m 0,0 km/h (0 Bft) N-NO 22 14,5 C 16,0 C 0,0 km/h (0 Bft)
03.07.2012 19:00 16,0 C 90 % 0,0 l/m 0,0 km/h (0 Bft) N-NO 22 14,4 C 16,0 C 0,0 km/h (0 Bft)
03.07.2012 19:05 16,0 C 90 % 0,0 l/m 0,0 km/h (0 Bft) N-NO 22 14,4 C 16,0 C 0,0 km/h (0 Bft)
03.07.2012 19:10 16,0 C 90 % 0,0 l/m 0,0 km/h (0 Bft) O 90 14,4 C 15,9 C 0,0 km/h (0 Bft)
03.07.2012 19:15 16,0 C 90 % 0,7 l/m 0,0 km/h (0 Bft) NO 45 14,4 C 15,9 C 0,0 km/h (0 Bft)
03.07.2012 19:20 15,9 C 92 % 0,0 l/m 1,1 km/h (1 Bft) N-NW 337 14,6 C 15,8 C 2,9 km/h (1 Bft)
03.07.2012 19:25 15,9 C 92 % 0,0 l/m 1,3 km/h (1 Bft) N-NW 337 14,6 C 15,8 C 0,0 km/h (0 Bft)
03.07.2012 19:30 15,8 C 92 % 0,0 l/m 1,3 km/h (1 Bft) O 90 14,5 C 15,8 C 2,1 km/h (1 Bft)
03.07.2012 19:35 15,8 C 93 % 0,0 l/m 1,1 km/h (1 Bft) O-SO 112 14,7 C 15,8 C 0,0 km/h (0 Bft)
03.07.2012 19:40 15,9 C 93 % 0,7 l/m 0,8 km/h (0 Bft) O-SO 112 14,8 C 15,8 C 3,4 km/h (1 Bft)
03.07.2012 19:45 15,9 C 93 % 0,0 l/m 1,0 km/h (0 Bft) N 360 14,8 C 15,8 C 0,0 km/h (0 Bft)
03.07.2012 19:50 15,8 C 93 % 0,0 l/m 1,6 km/h (1 Bft) N 360 14,7 C 15,8 C 0,0 km/h (0 Bft)
03.07.2012 19:55 15,9 C 93 % 0,0 l/m 0,8 km/h (0 Bft) N 360 14,8 C 15,8 C 0,0 km/h (0 Bft)
03.07.2012 20:00 16,0 C 92 % 0,0 l/m 0,6 km/h (0 Bft) N-NW 337 14,7 C 15,8 C 0,0 km/h (0 Bft)
03.07.2012 20:05 16,0 C 92 % 0,0 l/m 0,6 km/h (0 Bft) N-NO 22 14,7 C 15,9 C 0,0 km/h (0 Bft)
03.07.2012 20:10 16,0 C 92 % 0,7 l/m 0,0 km/h (0 Bft) N-NO 22 14,7 C 15,9 C 0,0 km/h (0 Bft)
03.07.2012 20:15 15,9 C 93 % 0,0 l/m 0,3 km/h (0 Bft) NO 45 14,8 C 15,9 C 1,6 km/h (1 Bft)
03.07.2012 20:20 15,7 C 93 % 0,0 l/m 0,3 km/h (0 Bft) N-NO 22 14,6 C 15,8 C 0,0 km/h (0 Bft)
03.07.2012 20:25 15,6 C 93 % 0,7 l/m 0,2 km/h (0 Bft) NO 45 14,5 C 15,7 C 0,0 km/h (0 Bft)
03.07.2012 20:30 15,6 C 93 % 0,0 l/m 0,0 km/h (0 Bft) NO 45 14,5 C 15,6 C 0,0 km/h (0 Bft)
03.07.2012 20:35 15,6 C 93 % 0,0 l/m 0,2 km/h (0 Bft) O-SO 112 14,5 C 15,5 C 1,8 km/h (1 Bft)
03.07.2012 20:40 15,7 C 93 % 0,7 l/m 0,6 km/h (0 Bft) NO 45 14,6 C 15,6 C 0,0 km/h (0 Bft)
03.07.2012 20:45 15,6 C 93 % 0,7 l/m 0,6 km/h (0 Bft) N 360 14,5 C 15,6 C 0,0 km/h (0 Bft)
03.07.2012 20:50 15,6 C 93 % 0,7 l/m 1,8 km/h (1 Bft) NW 315 14,5 C 15,6 C 4,5 km/h (1 Bft)
03.07.2012 20:55 15,6 C 93 % 2,1 l/m 2,3 km/h (1 Bft) N-NO 22 14,5 C 15,5 C 1,9 km/h (1 Bft)
03.07.2012 21:00 15,5 C 93 % 0,7 l/m 1,1 km/h (1 Bft) NO 45 14,4 C 15,5 C 0,0 km/h (0 Bft)
03.07.2012 21:05 15,5 C 93 % 0,0 l/m 0,3 km/h (0 Bft) N 360 14,4 C 15,5 C 0,0 km/h (0 Bft)
03.07.2012 21:10 15,5 C 93 % 0,0 l/m 0,2 km/h (0 Bft) W-NW 292 14,4 C 15,5 C 0,0 km/h (0 Bft)
03.07.2012 21:15 15,5 C 93 % 0,7 l/m 0,2 km/h (0 Bft) N 360 14,4 C 15,4 C 0,0 km/h (0 Bft)
03.07.2012 21:20 15,5 C 93 % 0,0 l/m 0,2 km/h (0 Bft) N 360 14,4 C 15,4 C 0,0 km/h (0 Bft)
03.07.2012 21:25 15,4 C 94 % 0,0 l/m 0,8 km/h (0 Bft) N-NW 337 14,4 C 15,4 C 2,1 km/h (1 Bft)
03.07.2012 21:30 15,4 C 94 % 0,0 l/m 1,0 km/h (0 Bft) O-SO 112 14,4 C 15,3 C 0,0 km/h (0 Bft)
03.07.2012 21:35 15,4 C 94 % 0,0 l/m 0,5 km/h (0 Bft) N 360 14,4 C 15,3 C 0,0 km/h (0 Bft)
03.07.2012 21:40 15,4 C 94 % 0,0 l/m 0,0 km/h (0 Bft) N 360 14,4 C 15,3 C 0,0 km/h (0 Bft)
03.07.2012 21:45 15,4 C 94 % 0,0 l/m 0,2 km/h (0 Bft) N-NO 22 14,4 C 15,3 C 0,0 km/h (0 Bft)
03.07.2012 21:50 15,4 C 94 % 0,0 l/m 0,3 km/h (0 Bft) N 360 14,4 C 15,3 C 0,0 km/h (0 Bft)
03.07.2012 21:55 15,3 C 94 % 0,0 l/m 0,2 km/h (0 Bft) N 360 14,3 C 15,3 C 0,0 km/h (0 Bft)
03.07.2012 22:00 15,3 C 94 % 0,0 l/m 0,0 km/h (0 Bft) N-NO 22 14,3 C 15,2 C 0,0 km/h (0 Bft)
03.07.2012 22:05 15,3 C 94 % 0,0 l/m 0,2 km/h (0 Bft) N 360 14,3 C 15,2 C 0,0 km/h (0 Bft)
03.07.2012 22:10 15,2 C 94 % 0,0 l/m 0,2 km/h (0 Bft) N 360 14,2 C 15,1 C 0,0 km/h (0 Bft)
03.07.2012 22:15 15,1 C 94 % 0,0 l/m 0,2 km/h (0 Bft) N-NO 22 14,1 C 15,1 C 0,0 km/h (0 Bft)
03.07.2012 22:20 15,1 C 94 % 0,0 l/m 0,0 km/h (0 Bft) N 360 14,1 C 15,0 C 0,0 km/h (0 Bft)
03.07.2012 22:25 15,0 C 94 % 0,0 l/m 0,0 km/h (0 Bft) W 270 14,0 C 15,0 C 0,0 km/h (0 Bft)
03.07.2012 22:30 15,1 C 94 % 0,0 l/m 0,0 km/h (0 Bft) N-NW 337 14,1 C 15,0 C 0,0 km/h (0 Bft)
03.07.2012 22:35 15,1 C 94 % 0,0 l/m 0,2 km/h (0 Bft) NO 45 14,1 C 15,0 C 0,0 km/h (0 Bft)
03.07.2012 22:40 15,0 C 94 % 0,0 l/m 0,2 km/h (0 Bft) N 360 14,0 C 15,0 C 0,0 km/h (0 Bft)
03.07.2012 22:45 15,0 C 94 % 0,0 l/m 0,0 km/h (0 Bft) W 270 14,0 C 15,0 C 0,0 km/h (0 Bft)
03.07.2012 22:50 15,1 C 94 % 0,0 l/m 0,0 km/h (0 Bft) N-NO 22 14,1 C 15,0 C 0,0 km/h (0 Bft)
03.07.2012 22:55 15,0 C 94 % 0,0 l/m 0,0 km/h (0 Bft) N 360 14,0 C 15,0 C 0,0 km/h (0 Bft)
03.07.2012 23:00 15,0 C 94 % 0,0 l/m 0,5 km/h (0 Bft) N 360 14,0 C 14,9 C 1,8 km/h (1 Bft)
03.07.2012 23:05 15,0 C 94 % 0,0 l/m 0,8 km/h (0 Bft) N-NO 22 14,0 C 14,9 C 0,0 km/h (0 Bft)
03.07.2012 23:10 15,0 C 94 % 0,0 l/m 0,6 km/h (0 Bft) N-NO 22 14,0 C 14,9 C 0,0 km/h (0 Bft)
03.07.2012 23:15 15,1 C 94 % 0,0 l/m 0,0 km/h (0 Bft) NO 45 14,1 C 15,0 C 0,0 km/h (0 Bft)
03.07.2012 23:20 15,2 C 94 % 0,0 l/m 0,0 km/h (0 Bft) N 360 14,2 C 15,0 C 0,0 km/h (0 Bft)
03.07.2012 23:25 15,2 C 94 % 0,0 l/m 0,0 km/h (0 Bft) O-NO 67 14,2 C 15,1 C 0,0 km/h (0 Bft)
03.07.2012 23:30 15,3 C 94 % 0,0 l/m 0,0 km/h (0 Bft) SO 135 14,3 C 15,1 C 0,0 km/h (0 Bft)
03.07.2012 23:35 15,3 C 94 % 0,0 l/m 0,0 km/h (0 Bft) O-SO 112 14,3 C 15,2 C 3,2 km/h (1 Bft)
03.07.2012 23:40 15,3 C 94 % 0,0 l/m 0,3 km/h (0 Bft) O-SO 112 14,3 C 15,2 C 0,0 km/h (0 Bft)
03.07.2012 23:45 15,4 C 94 % 0,0 l/m 0,3 km/h (0 Bft) NO 45 14,4 C 15,3 C 0,0 km/h (0 Bft)
03.07.2012 23:50 15,4 C 94 % 0,0 l/m 0,0 km/h (0 Bft) NO 45 14,4 C 15,3 C 0,0 km/h (0 Bft)
03.07.2012 23:55 15,4 C 94 % 0,0 l/m 0,0 km/h (0 Bft) N-NO 22 14,4 C 15,3 C 0,0 km/h (0 Bft)
_ Min-Zeit 23:10 13:55 - 23:55 - - 23:10 23:10 23:55
Minimum _ 15,0 C 73 % - 0,0 km/h (0 Bft) - - 14,0 C 14,9 C 0,0 km/h (0 Bft)
_ Max-Zeit 13:55 23:55 20:55 15:20 - - 13:30 14:00 15:20
Maximum _ 21,3 C 94 % 2,1 l/m 5,3 km/h
W (1 Bft)
- - 16,8 C 22,8 C 10,9 km/h
W (2 Bft)
Durchschnitt _ 16,6 C 89 % #8,9 l/m 1,2 km/h (1 Bft) W-NW - 14,8 C 16,8 C 1,6 km/h (1 Bft)